Location: Sakana
(17.3071°S, 49.0405°E)
Time: 20:13:00
(UTC+00:00)

Daily predictions for brighter satellites

Satellite Brightness Start Highest point End
(mag) Time Altitude Azimuth Time Altitude Azimuth Time Altitude Azimuth
Cosmos 1943 Rocket 3.6 14:54:40 10° SSE 14:58:32 18° ESE 15:02:21 10° ENE
Okean 1 Rocket 3.1 14:55:19 10° S 14:59:49 86° E 15:04:17 10° N
USA 305 4.4 14:58:59 10° S 15:02:17 21° SE 15:05:34 10° E
Orbus 7S 3.5 15:00:34 10° W 15:03:15 41° NNW 15:05:51 10° NE
USA 306 4.2 15:03:37 10° S 15:07:05 23° SE 15:10:31 10° ENE
Cosmos 1340 Rocket 2.7 15:04:28 10° S 15:08:24 72° E 15:12:19 10° NNE
YAOGAN 1 4.1 15:08:02 10° ESE 15:10:28 15° E 15:12:53 10° NE
SeaSat 1 2.9 15:14:29 10° SE 15:19:03 38° ENE 15:23:36 10° N
Cosmos 1025 Rocket 3.2 15:15:57 10° NNE 15:20:10 48° E 15:24:24 10° SSE
Cosmos 1758 4.4 15:18:11 10° SSE 15:21:28 24° E 15:24:43 10° NE
Helios 1A Rocket 3.3 15:19:26 10° SSE 15:23:18 40° E 15:27:09 10° N
Meteor 1-22 Rocket 4.4 15:18:09 10° S 15:23:46 82° W 15:29:34 10° N
CZ-3B R/B 1.9 15:22:45 10° WSW 15:25:00 34° S 15:25:32 25° SE
CZ-4 R/B 2.3 15:22:08 10° SE 15:25:51 29° E 15:29:33 10° NNE
USA 234 3.3 15:20:22 10° NE 15:26:55 82° SE 15:33:30 10° SW
Cosmos 1943 4.4 15:25:01 10° NW 15:30:27 47° WSW 15:35:57 10° S
Cosmos 1707 3.2 15:27:01 10° NNW 15:30:49 64° W 15:34:42 10° S
Cosmos 1544 Rocket 4.3 15:28:59 10° SSE 15:32:52 29° E 15:36:01 13° NE
CZ-4 R/B 4.4 15:30:57 10° SSE 15:35:03 61° E 15:39:06 10° N
SEDSat Delta rocket 3.4 15:29:47 10° NW 15:35:32 69° NNE 15:39:09 19° ESE
Cosmos 1634 Rocket 4.1 15:31:51 10° S 15:38:02 79° W 15:44:11 10° N
USA 307 3.1 15:34:28 10° SSW 15:38:43 51° SE 15:41:02 24° ENE
Atlas Centaur 2 4.2 15:33:11 10° WSW 15:39:41 28° S 15:45:14 10° SE
Cosmos 1470 2.6 15:37:29 10° S 15:41:28 70° E 15:45:21 10° N
USA 308 3.0 15:38:07 10° SSW 15:42:22 56° SE 15:44:32 27° ENE
SWIFT 2.5 15:40:06 10° WSW 15:44:16 60° S 15:46:10 30° ESE
IRS-1C Rocket 4.2 15:39:34 10° S 15:44:52 81° WSW 15:50:07 10° NNW
Cosmos 1048 Rocket 4.1 15:44:23 10° N 15:49:37 57° ENE 15:54:52 10° SSE
Cosmos 1674 2.7 15:47:43 10° N 15:51:23 53° E 15:55:04 10° SSE
CENTAUR R/B 4.4 15:45:54 10° NNE 15:49:54 19° NE 15:49:54 19° NE
Cosmos 2056 Rocket 4.0 15:46:58 10° S 15:52:01 38° ESE 15:53:42 31° ENE
ATLAS 3B CENTAUR R/B 4.3 15:43:18 10° WNW 15:52:39 89° NNE 16:12:01 14° ESE
Cosmos 1536 Rocket 3.6 15:48:44 10° N 15:53:11 84° W 15:57:40 10° S
Cosmos 468 4.4 15:48:48 10° N 15:54:02 68° ENE 15:59:18 10° SSE
Hubble Space Telescope 1.2 15:51:44 10° SW 15:55:47 49° SSE 15:56:44 40° ESE
CZ-2D R/B 3.6 15:52:39 10° S 15:56:33 67° WSW 16:00:24 10° NNW
Meteor 2-10 4.1 15:51:12 10° S 15:56:58 70° E 16:02:34 10° NNE
CZ-2C R/B 2.7 15:51:48 10° NNE 15:57:22 87° WNW 16:02:53 10° SSW
Cosmos 1939 Rocket 4.1 15:54:21 10° S 15:58:16 44° WSW 16:02:10 10° NNW
Cosmos 1726 2.5 15:55:29 10° S 15:58:25 44° SE 15:58:25 44° SE
Cosmos 1867 4.2 15:56:33 10° NW 16:01:50 57° WSW 16:07:09 10° SSE
GPS 2-14 Rocket1 2.9 16:00:22 10° WSW 16:04:05 50° S 16:04:28 48° SSE
CZ-2C R/B 2.9 16:00:46 10° SSE 16:05:42 61° ENE 16:10:52 10° N
Cosmos 2279 Rocket 4.1 16:00:36 10° S 16:06:51 76° W 16:13:04 10° N
Cosmos 2369 Rocket 2.2 16:02:28 10° S 16:07:57 55° ESE 16:09:12 45° ENE
Okean-O 3.1 16:03:39 10° S 16:08:04 62° WSW 16:12:25 10° NNW
H-2A R/B 3.5 16:03:38 10° SSE 16:15:17 - N 16:05:07 19° SE
USA 215 3.9 16:12:30 33° NE 16:12:30 33° NE 16:17:40 10° N
EO 1 Delta rocket 4.5 16:13:55 39° SE 16:13:55 39° SE 16:17:17 10° S
Cosmos 1455 Rocket 4.4 16:11:54 10° SSW 16:16:04 39° W 16:20:11 10° NNW
CZ-3 Stage 3 3.1 16:13:22 10° SW 16:16:24 39° SSE 16:16:46 39° SE
Meteor 2-5 Rocket 3.8 16:10:57 10° N 16:16:44 58° E 16:22:36 10° SSE
NOSS 2-1 (C) 3.9 16:12:38 10° SSW 16:19:16 74° ESE 16:19:57 64° ENE
Cosmos 1624 Rocket 3.8 16:17:33 10° SSW 16:22:48 88° ESE 16:23:43 61° NNE
Cosmos 2195 Rocket 4.3 16:16:55 10° N 16:22:57 69° E 16:29:04 10° S
Cosmos 371 Rocket 3.7 16:18:39 10° S 16:22:25 49° SSE 16:22:25 49° SSE
NOSS 2-1 (D) 3.9 16:17:47 10° SSW 16:24:24 84° ESE 16:24:56 72° NE
Cosmos 2026 Rocket 3.9 16:24:36 58° E 16:24:45 58° E 16:30:52 10° SSE
Lacrosse 5 2.5 16:19:54 10° SSW 16:23:53 43° SSE 16:23:53 43° SSE
GPS 2-12 Rocket1 3.1 16:21:35 10° W 16:26:06 80° W 16:26:06 80° W
Cosmos 2263 4.3 16:24:10 10° S 16:29:07 57° SE 16:29:07 57° SE
CSL-04 Rocket 3.5 16:25:21 10° SSE 16:30:44 88° ENE 16:36:09 10° NNW
Cosmos 1092 Rocket 4.0 16:26:08 10° N 16:32:25 83° W 16:38:49 10° S
Cosmos 1953 3.7 16:28:21 10° S 16:30:41 33° SSW 16:30:41 33° SSW
Cosmos 1627 Rocket 4.3 16:29:25 10° N 16:35:42 81° E 16:41:58 10° S
CSL-04 Debris 4.2 16:31:03 10° S 16:36:29 75° WSW 16:41:51 10° NNW
USA 238 DEB 3.7 16:33:03 10° NNW 16:40:37 74° ENE 16:42:09 58° SE
USA 238 3.7 16:33:11 10° NNW 16:40:44 73° ENE 16:42:01 61° ESE
Cosmos 1943 Rocket 3.6 16:37:03 10° SW 16:42:11 35° WNW 16:46:08 16° NNW
ATLAS 5 CENTAUR R/B 3.3 16:47:55 10° SW 16:50:13 28° SW 16:50:13 28° SW
NOSS 3-2 (A) 4.3 16:53:40 10° NNW 17:02:22 72° WSW 17:10:42 10° SSE
Aurora 2 Rocket 4.4 17:11:58 10° WSW 17:19:41 53° SSW 17:19:41 53° SSW
Atlas Centaur 2 4.3 17:24:38 10° SW 17:27:57 22° SSW 17:27:57 22° SSW
Cosmos 2263 Rocket 3.8 23:47:39 30° SE 23:47:39 30° SE 23:50:48 10° SSE
